Regional Weather Roundup
Issued by NWS

Home | Current Version | Previous Version | Graphics & Text | Print | Product List | Glossary On
Versions: 1 2 3 4 5 6 7 8 9 10 11 12 13 14 15 16 17 18 19 20 21 22 23 24 25 26 27 28 29 30 31 32 33 34 35 36 37 38 39 40 41 42 43 44 45 46 47 48 49 50
340
ASUS43 KIND 271209
RWRIN

WEATHER ROUNDUP FOR INDIANA
NATIONAL WEATHER SERVICE INDIANAPOLIS IN
800 AM EDT MON MAR 27 2017

NOTE: "FAIR" INDICATES FEW OR NO CLOUDS BELOW 12,000 FEET WITH NO
SIGNIFICANT WEATHER AND/OR OBSTRUCTIONS TO VISIBILITY.

* - STATION DOES NOT REPORT WEATHER SUCH AS PRECIPITATION OR FOG.

+ - STATION NOT QUALITY CONTROLLED BY THE NATIONAL WEATHER SERVICE.
    USE DATA WITH CAUTION...ESPECIALLY DEWPOINT AND RELATIVE
    HUMIDITY OBSERVATIONS.

INZ001>003-010>013-019-020-271300-
NORTHWEST INDIANA

CITY           SKY/WX    TMP DP  RH WIND       PRES   REMARKS
GARY /AIRPORT/ CLOUDY    50  48  93 SW6       29.94R FOG
KNOX *+        CLOUDY    48  39  71 W8        29.95R
LA PORTE +     CLOUDY    49  48  97 W7        29.95R FOG
6HR MIN TEMP:  49; 6HR MAX TEMP:  50;

MICHIGAN CITY+ CLOUDY    48  48 100 SW6       29.94R FOG
MONTICELLO +   CLOUDY    49  47  92 CALM      29.94S
6HR MIN TEMP:  48; 6HR MAX TEMP:  51;

RENSSELAER +   CLOUDY    50  48  93 W5        29.94S
VALPARAISO     CLOUDY    50  49  96 W6        29.95R FOG
6HR MIN TEMP:  50; 6HR MAX TEMP:  52;


$$

LMZ046-743>745-271300-
SOUTHERN LAKE MICHIGAN

STATION/POSITION TIME  TEMP    WIND        PRES    WAVE
                       AIR SEA DIR/SP/G            HT
                 (UTC) (F)     (DEG/KT/KT) (MB)    (FT)
BURNS HARBOR     1200   50     230/  8/ 14 1014.6
MICHIGAN CITY    1140   44     220/ 10/ 11   N/A

$$

INZ004-005-014>016-021>024-271300-
NORTH CENTRAL INDIANA

CITY           SKY/WX    TMP DP  RH WIND       PRES   REMARKS
ELKHART        CLOUDY    50  48  93 W6        29.92R FOG
GOSHEN         CLOUDY    50  47  89 W8        29.93R FOG
6HR MIN TEMP:  50; 6HR MAX TEMP:  52; 6HR PCP: TRACE;

LOGANSPORT +   CLOUDY    48  46  93 SW6       29.97R
PERU/GRISSOM   CLOUDY    50  50 100 SW9       29.95R
6HR MIN TEMP:  49; 6HR MAX TEMP:  52; 6HR PCP:  0.01;

ROCHESTER +    CLOUDY    52  50  93 SW6       29.95R FOG
SOUTH BEND     CLOUDY    49  48  97 W8        29.93R FOG
6HR MIN TEMP:  49; 6HR MAX TEMP:  51;

WARSAW +       CLOUDY    48  46  93 W7        29.94R FOG

$$

INZ006>009-017-018-025>027-271300-
NORTHEAST INDIANA

CITY           SKY/WX    TMP DP  RH WIND       PRES   REMARKS
ANGOLA *+      CLOUDY    50  43  76 W5        29.91R
AUBURN +       CLOUDY    50  46  87 SW5       29.93R
FORT WAYNE     CLOUDY    51  48  89 SW7       29.94R
6HR MIN TEMP:  51; 6HR MAX TEMP:  53; 6HR PCP:  0.03;

HUNTINGTON +   CLOUDY    50  49  95 W8        29.95R
6HR MIN TEMP:  49; 6HR MAX TEMP:  52; 6HR PCP:  0.02;

KENDALLVILLE + CLOUDY    49  49  98 W9        29.93R FOG

$$

INZ028-029-035-036-043>045-051>053-271300-
WEST CENTRAL INDIANA

CITY           SKY/WX    TMP DP  RH WIND       PRES   REMARKS
CRAWFORDSVL +  CLOUDY    47  47 100 E3        29.94S FOG
6HR MIN TEMP:  47; 6HR MAX TEMP:  51;

GREENCASTLE +  FOG       45  45 100 CALM      29.95S VSB 1/4
LAFAYETTE      CLOUDY    49  49 100 CALM      29.94F
6HR MIN TEMP:  48; 6HR MAX TEMP:  51;

TERRE HAUTE    PTCLDY    44  42  93 E3        29.93F FOG
6HR MIN TEMP:  43; 6HR MAX TEMP:  51;


$$

INZ030>032-037>040-046>048-054>057-064-065-271300-
CENTRAL INDIANA

CITY           SKY/WX    TMP DP  RH WIND       PRES   REMARKS
CP ATTERBURY + CLEAR     41  41 100 CALM      29.98S
COLUMBUS       CLEAR     43  43 100 S5        29.98R FOG
FISHERS *+     CLOUDY    48  48 100 CALM      29.96R
FRANKFORT +    CLOUDY    50  49  97 CALM      29.96F FOG
6HR MIN TEMP:  48; 6HR MAX TEMP:  55;

GREENWOOD *+   CLEAR     47  47 100 S5        29.97S
6HR MIN TEMP:  46; 6HR MAX TEMP:  52;

INDIANAPOLIS   MOCLDY    47  46  97 S7        29.96R FOG
6HR MIN TEMP:  46; 6HR MAX TEMP:  52;

-EAGLE CREEK   PTCLDY    49  47  93 S6        29.96R FOG
6HR MIN TEMP:  47; 6HR MAX TEMP:  53;

KOKOMO +       CLOUDY    50  49  96 W6        29.97R
6HR MIN TEMP:  50; 6HR MAX TEMP:  53; 6HR PCP:  0.02;

MARION +       CLOUDY    50  48  93 W7        29.96R
MT COMFORT *+  MOCLDY    46  46 100 S6        29.97S
SHELBYVILLE    CLEAR     46  44  93 S5        29.97R
6HR MIN TEMP:  45; 6HR MAX TEMP:  52;

ZIONSVILLE +   CLOUDY    50  48  94 CALM      29.96S
6HR MIN TEMP:  50; 6HR MAX TEMP:  52;


$$

INZ033-034-041-042-049-050-058-059-271300-
EAST CENTRAL INDIANA

CITY           SKY/WX    TMP DP  RH WIND       PRES   REMARKS
MUNCIE         MOCLDY    52  49  89 SW7       29.96R
6HR MIN TEMP:  52; 6HR MAX TEMP:  55;

RICHMOND +     PTCLDY    45  45 100 S7        29.99R FOG

$$

INZ060-061-067>069-081>083-085>088-271300-
SOUTHWEST INDIANA

CITY           SKY/WX    TMP DP  RH WIND       PRES   REMARKS
EVANSVILLE     CLOUDY    49  46  90 NE5       29.94S
6HR MIN TEMP:  46; 6HR MAX TEMP:  51;

HUNTINGBURG *+ CLOUDY    46  45  96 E3        29.95S
6HR MIN TEMP:  44; 6HR MAX TEMP:  48;

WASHINGTON +   PTCLDY    46  44  94 MISG      29.95R
6HR MIN TEMP:  44; 6HR MAX TEMP:  48;


$$

INZ062-063-066-070>080-084-089>092-271300-
SOUTH CENTRAL AND SOUTHEAST INDIANA

CITY           SKY/WX    TMP DP  RH WIND       PRES   REMARKS
BEDFORD +      CLEAR     45  43  93 E6        29.96S
BLOOMINGTON    PTCLDY    42  40  92 E3        29.95F
6HR MIN TEMP:  40; 6HR MAX TEMP:  49;

MADISON *+     CLEAR     43  43 100 NE3       30.00S
NORTH VERNON + CLEAR    N/A N/A N/A CALM      29.99
SEYMOUR +      FOG       43  43 100 CALM      29.98R VSB<1/4

$$





USA.gov is the U.S. government's official web portal to all federal, state and local government web resources and services.